Weather History for KUNI - February, 2014

Change the Weather History Date:

Friday, February 21, 2014

  Actual Average (KPKB) Record (KPKB)
Temperature  
Mean Temperature 46 °F 36 °F  
Max Temperature 62 °F 46 °F 72 °F (1997)
Min Temperature 30 °F 27 °F -1 °F (1963)
Degree Days  
Heating Degree Days 19 29  
Month to date heating degree days 651  
Cooling Degree Days 0 0  
Month to date cooling degree days 0  
Year to date cooling degree days 0  
Moisture  
Dew Point 31 °F    
Average Humidity 64    
Maximum Humidity 96    
Minimum Humidity 33    
Precipitation  
Precipitation 0.00 in 0.10 in 1.21 in (2011)
Month to date precipitation 2.00  
Year to date precipitation 4.95  
Sea Level Pressure  
Sea Level Pressure 29.82 in    
Wind  
Wind Speed 10 mph (SW)    
Max Wind Speed 26 mph    
Max Gust Speed 37 mph    
Visibility 10 miles    
Events Rain , Thunderstorm    
T = Trace of Precipitation, MM = Missing Value Source: NWS Daily Summary

Daily Weather History Graph

Daily Weather History Graph

Search for Another Location

Airport or City:

Trip Planner

Search our weather history database for the weather conditions in past years. The results will help you decide how hot, cold, wet, or windy it might be!

Date:

Astronomy

Feb. 21, 2014 Rise Set
Actual Time 7:12 AM EST 6:12 PM EST
Civil Twilight 6:45 AM EST 6:39 PM EST
Nautical Twilight 6:14 AM EST 7:11 PM EST
Astronomical Twilight 5:43 AM EST 7:42 PM EST
Moon 12:02 AM EST (2/21) 10:38 AM EST (2/21)
Length of Visible Light 11h 54m
Length of Day
10h 59m
Waning Gibbous, 61% of the Moon is Illuminated
Feb 21
Waning Gibbous
Feb 22
Last Quarter
Mar 1
New
Mar 8
First Quarter
Mar 16
Full

Hourly Weather History & Observations

Time (EST) Temp. Windchill Dew Point Humidity Pressure Visibility Wind Dir Wind Speed Gust Speed Precip Events Conditions
12:15 AM 62.2 °F - 47.5 °F 58% 29.58 in 10.0 mi South 3.5 mph - N/A   Overcast
12:35 AM 61.2 °F - 48.2 °F 62% 29.59 in 10.0 mi Calm Calm - N/A Rain Light Rain
12:55 AM 59.7 °F - 49.3 °F 68% 29.57 in 7.0 mi Calm Calm - N/A Rain Rain
1:15 AM 55.6 °F - 51.3 °F 85% 29.55 in 10.0 mi SSW 11.5 mph 36.8 mph N/A Rain , Thunderstorm Light Thunderstorms and Rain
1:35 AM 55.6 °F - 53.4 °F 92% 29.59 in 7.0 mi SSW 11.5 mph 25.3 mph N/A Rain Rain
1:55 AM 55.8 °F - 53.8 °F 93% 29.60 in 10.0 mi SW 9.2 mph 16.1 mph N/A Rain Rain
2:15 AM 55.6 °F - 53.8 °F 94% 29.62 in 10.0 mi SSW 8.1 mph - N/A Rain Light Rain
2:35 AM 55.4 °F - 54.0 °F 95% 29.63 in 10.0 mi SSW 12.7 mph 19.6 mph N/A Rain Rain
2:55 AM 55.4 °F - 54.0 °F 95% 29.61 in 10.0 mi SSW 9.2 mph 20.7 mph N/A Rain Rain
3:15 AM 51.3 °F - 49.5 °F 94% 29.64 in 7.0 mi West 13.8 mph 32.2 mph N/A Rain Light Rain
3:35 AM 49.6 °F - 47.8 °F 94% 29.66 in 10.0 mi WSW 10.4 mph - N/A Rain Light Rain
3:55 AM 49.1 °F - 47.5 °F 94% 29.65 in 10.0 mi West 9.2 mph - N/A Rain Rain
4:15 AM 49.1 °F - 47.5 °F 94% 29.65 in 10.0 mi West 8.1 mph - N/A Rain Rain
4:35 AM 48.4 °F - 47.3 °F 96% 29.65 in 10.0 mi WSW 5.8 mph - N/A Rain Light Rain
4:55 AM 47.7 °F - 46.0 °F 94% 29.68 in 7.0 mi WNW 10.4 mph 19.6 mph N/A Rain Rain
5:15 AM 44.6 °F 36.9 °F 43.0 °F 94% 29.72 in 5.0 mi West 18.4 mph 27.6 mph N/A Rain Rain
5:35 AM 42.3 °F 34.1 °F 39.4 °F 90% 29.73 in 10.0 mi West 17.3 mph 31.1 mph N/A Rain Rain
5:55 AM 40.1 °F 31.0 °F 36.5 °F 87% 29.76 in 10.0 mi West 18.4 mph 28.8 mph N/A Rain Rain
6:15 AM 38.5 °F 30.3 °F 34.7 °F 86% 29.79 in 10.0 mi West 13.8 mph 28.8 mph N/A Rain Light Rain
6:35 AM 36.9 °F 28.2 °F 33.8 °F 89% 29.79 in 10.0 mi West 13.8 mph 19.6 mph N/A Rain Light Rain
6:55 AM 36.5 °F 31.8 °F 33.8 °F 90% 29.78 in 10.0 mi SW 5.8 mph - N/A   Light Drizzle
7:15 AM 36.7 °F - 34.0 °F 90% 29.79 in 10.0 mi Calm Calm - N/A   Overcast
7:35 AM 36.7 °F 32.9 °F 33.6 °F 89% 29.80 in 10.0 mi SSW 4.6 mph - N/A   Overcast
7:55 AM 36.7 °F 32.0 °F 34.0 °F 90% 29.82 in 10.0 mi South 5.8 mph - N/A   Overcast
8:15 AM 37.2 °F 31.2 °F 34.7 °F 91% 29.82 in 10.0 mi SSW 8.1 mph - N/A   Overcast
8:35 AM 37.8 °F 31.3 °F 34.7 °F 89% 29.84 in 10.0 mi SSW 9.2 mph - N/A   Overcast
8:55 AM 38.3 °F 33.2 °F 34.5 °F 86% 29.83 in 10.0 mi SSW 6.9 mph - N/A   Overcast
9:15 AM 38.5 °F 31.6 °F 34.5 °F 86% 29.83 in 10.0 mi SSW 10.4 mph - N/A   Scattered Clouds
9:35 AM 38.7 °F 31.4 °F 34.2 °F 84% 29.84 in 10.0 mi SSW 11.5 mph 17.3 mph N/A   Clear
9:55 AM 40.6 °F 33.4 °F 34.5 °F 79% 29.84 in 10.0 mi SSW 12.7 mph 20.7 mph N/A   Clear
10:15 AM 42.4 °F 35.3 °F 35.4 °F 76% 29.84 in 10.0 mi SSW 13.8 mph 18.4 mph N/A   Scattered Clouds
10:35 AM 42.3 °F 35.9 °F 33.8 °F 72% 29.84 in 10.0 mi SW 11.5 mph 28.8 mph N/A   Mostly Cloudy
10:55 AM 44.2 °F 37.6 °F 33.3 °F 65% 29.83 in 10.0 mi SW 13.8 mph 24.2 mph N/A   Mostly Cloudy
11:15 AM 43.7 °F 36.0 °F 32.0 °F 63% 29.83 in 10.0 mi SW 17.3 mph 28.8 mph N/A   Mostly Cloudy
11:35 AM 45.3 °F 36.7 °F 32.5 °F 61% 29.82 in 10.0 mi SW 24.2 mph 33.4 mph N/A   Mostly Cloudy
11:55 AM 46.6 °F - 32.4 °F 58% 29.83 in 10.0 mi WSW 18.4 mph 26.5 mph N/A   Mostly Cloudy
12:15 PM 45.5 °F 37.6 °F 29.5 °F 54% 29.83 in 10.0 mi SW 20.7 mph 36.8 mph N/A   Scattered Clouds
12:35 PM 46.9 °F - 30.2 °F 52% 29.82 in 10.0 mi SW 20.7 mph 33.4 mph N/A   Scattered Clouds
12:55 PM 47.3 °F - 28.6 °F 48% 29.82 in 10.0 mi SW 19.6 mph 28.8 mph N/A   Mostly Cloudy
1:15 PM 46.2 °F 38.7 °F 27.7 °F 48% 29.82 in 10.0 mi WSW 19.6 mph 31.1 mph N/A   Overcast
1:35 PM 46.4 °F 39.2 °F 26.2 °F 45% 29.82 in 10.0 mi WSW 18.4 mph 33.4 mph N/A   Scattered Clouds
1:55 PM 47.3 °F - 26.1 °F 44% 29.82 in 10.0 mi WSW 26.5 mph 35.7 mph N/A   Scattered Clouds
2:15 PM 48.2 °F - 25.3 °F 41% 29.82 in 10.0 mi SW 20.7 mph 33.4 mph N/A   Scattered Clouds
2:35 PM 47.3 °F - 25.3 °F 42% 29.83 in 10.0 mi WSW 19.6 mph 31.1 mph N/A   Scattered Clouds
2:55 PM 48.2 °F - 26.1 °F 42% 29.83 in 10.0 mi WSW 19.6 mph 29.9 mph N/A   Scattered Clouds
3:15 PM 47.1 °F - 25.2 °F 42% 29.84 in 10.0 mi WSW 21.9 mph 29.9 mph N/A   Scattered Clouds
3:35 PM 48.4 °F - 25.0 °F 40% 29.85 in 10.0 mi WSW 24.2 mph 33.4 mph N/A   Scattered Clouds
3:55 PM 48.2 °F - 24.4 °F 39% 29.86 in 10.0 mi WSW 23.0 mph 33.4 mph N/A   Scattered Clouds
4:15 PM 47.7 °F - 24.3 °F 40% 29.86 in 10.0 mi WSW 21.9 mph 29.9 mph N/A   Scattered Clouds
4:35 PM 47.8 °F - 23.5 °F 39% 29.87 in 10.0 mi WSW 18.4 mph 27.6 mph N/A   Clear
4:55 PM 47.5 °F - 22.8 °F 38% 29.89 in 10.0 mi WSW 16.1 mph 25.3 mph N/A   Clear
5:15 PM 47.3 °F - 22.8 °F 38% 29.89 in 10.0 mi SW 15.0 mph 27.6 mph N/A   Clear
5:35 PM 46.8 °F - 23.0 °F 39% 29.90 in 10.0 mi SW 13.8 mph 23.0 mph N/A   Clear
5:55 PM 45.9 °F 38.8 °F 22.3 °F 39% 29.91 in 10.0 mi SW 17.3 mph - N/A   Clear
6:15 PM 44.4 °F 39.0 °F 20.3 °F 38% 29.92 in 10.0 mi WSW 10.4 mph - N/A   Clear
6:35 PM 43.5 °F 38.9 °F 19.9 °F 39% 29.93 in 10.0 mi SW 8.1 mph - N/A   Clear
6:55 PM 44.1 °F 38.1 °F 18.7 °F 36% 29.94 in 10.0 mi WSW 11.5 mph 23.0 mph N/A   Clear
7:15 PM 42.3 °F 38.6 °F 18.0 °F 38% 29.95 in 10.0 mi SW 5.8 mph - N/A   Clear
7:35 PM 42.8 °F 38.0 °F 17.6 °F 36% 29.96 in 10.0 mi SW 8.1 mph - N/A   Clear
7:55 PM 41.4 °F 34.7 °F 18.3 °F 40% 29.97 in 10.0 mi WSW 11.5 mph - N/A   Clear
8:15 PM 42.1 °F 37.7 °F 14.7 °F 33% 29.97 in 10.0 mi SW 6.9 mph - N/A   Clear
8:35 PM 39.0 °F 34.0 °F 17.1 °F 41% 29.98 in 10.0 mi WSW 6.9 mph - N/A   Clear
8:55 PM 39.9 °F 35.1 °F 14.9 °F 36% 29.99 in 10.0 mi SW 6.9 mph - N/A   Clear
9:15 PM 38.3 °F 33.9 °F 15.6 °F 40% 29.99 in 10.0 mi WSW 5.8 mph - N/A   Clear
9:35 PM 37.0 °F 33.3 °F 15.6 °F 42% 29.99 in 10.0 mi SW 4.6 mph - N/A   Clear
9:55 PM 36.5 °F 32.7 °F 16.0 °F 43% 30.00 in 10.0 mi SSW 4.6 mph - N/A   Clear
10:15 PM 36.1 °F 32.3 °F 16.5 °F 45% 30.00 in 10.0 mi SSW 4.6 mph - N/A   Clear
10:35 PM 35.8 °F 33.0 °F 16.5 °F 46% 30.00 in 10.0 mi SSW 3.5 mph - N/A   Clear
10:55 PM 34.5 °F - 18.0 °F 51% 30.01 in 10.0 mi Calm Calm - N/A   Clear
11:15 PM 32.9 °F - 19.0 °F 57% 30.01 in 10.0 mi Calm Calm - N/A   Clear
11:35 PM 30.9 °F - 20.5 °F 65% 30.01 in 10.0 mi Calm Calm - N/A   Clear
11:55 PM 30.7 °F - 21.2 °F 68% 30.02 in 10.0 mi Calm Calm - N/A   Clear